WJA2739 MDLR-CYYZ

Flight info

Callsign WJA2739
Flight time 4h 27m
Altitude 35000
Route CHUMA2K CHUMA DCT DONQU/N0458F340 L454 ALERI/N0457F360 L454 LUCTI/M078F360 L454 OKONU/N0447F370 Y484 MOUGH/N0444F360 Y484 JFK DCT CFB DCT WOZEE LINNG3
Aircraft B738/M-SDE2E3FGHIRWXY/LB1

Departure

Time 2026-05-04 23:21
Airport Casa De Campo International Airport (MDLR)

Arrival

Time 2026-05-05 03:48
Airport Toronto Pearson International Airport (CYYZ)
Time Latitude Longitude Altitude Speed Heading
2026-05-04 22:47 18.44935 -68.91267 219 ft 0 kts 188°
2026-05-04 23:11 18.44958 -68.91263 221 ft 4 kts 192°
2026-05-04 23:12 18.44984 -68.91256 221 ft 4 kts 200°
2026-05-04 23:12 18.45008 -68.91244 221 ft 4 kts 223°
2026-05-04 23:12 18.45019 -68.91225 221 ft 2 kts 276°
2026-05-04 23:15 18.45020 -68.91234 219 ft 3 kts 277°
2026-05-04 23:15 18.45023 -68.91263 219 ft 5 kts 277°
2026-05-04 23:15 18.45029 -68.91309 219 ft 8 kts 277°
2026-05-04 23:15 18.45036 -68.91371 221 ft 9 kts 276°
2026-05-04 23:16 18.45047 -68.91464 220 ft 16 kts 277°
2026-05-04 23:16 18.45055 -68.91534 217 ft 13 kts 277°
2026-05-04 23:16 18.45090 -68.91608 217 ft 10 kts 344°
2026-05-04 23:16 18.45191 -68.91601 219 ft 11 kts
2026-05-04 23:17 18.45266 -68.91594 221 ft 11 kts 357°
2026-05-04 23:17 18.45307 -68.91652 222 ft 11 kts 279°
2026-05-04 23:17 18.45320 -68.91743 221 ft 14 kts 277°
2026-05-04 23:17 18.45329 -68.91820 220 ft 17 kts 277°
2026-05-04 23:18 18.45344 -68.91961 220 ft 21 kts 277°
2026-05-04 23:18 18.45363 -68.92120 223 ft 22 kts 277°
2026-05-04 23:18 18.45382 -68.92283 220 ft 23 kts 277°
2026-05-04 23:18 18.45390 -68.92420 218 ft 12 kts 250°
2026-05-04 23:19 18.45368 -68.92492 218 ft 11 kts 291°
2026-05-04 23:19 18.45406 -68.92471 218 ft 7 kts 90°
2026-05-04 23:19 18.45403 -68.92446 219 ft 0 kts 98°
2026-05-04 23:20 18.45401 -68.92429 222 ft 16 kts 98°
2026-05-04 23:20 18.45357 -68.92044 222 ft 89 kts 97°
2026-05-04 23:21 18.45253 -68.91162 222 ft 151 kts 97°
2026-05-04 23:21 18.45106 -68.89911 488 ft 181 kts 98°
2026-05-04 23:21 18.44942 -68.88647 1508 ft 164 kts 100°
2026-05-04 23:21 18.44796 -68.87472 2361 ft 165 kts 100°
2026-05-04 23:22 18.44641 -68.86220 2836 ft 184 kts 95°
2026-05-04 23:22 18.44964 -68.84842 3314 ft 208 kts 61°
2026-05-04 23:22 18.46130 -68.83838 3700 ft 231 kts 25°
2026-05-04 23:22 18.47783 -68.83524 4033 ft 253 kts
2026-05-04 23:23 18.49561 -68.83411 4531 ft 260 kts 16°
2026-05-04 23:23 18.51270 -68.82614 4803 ft 280 kts 36°
2026-05-04 23:23 18.52908 -68.81460 5574 ft 281 kts 37°
2026-05-04 23:23 18.54558 -68.80357 6479 ft 284 kts 34°
2026-05-04 23:24 18.56254 -68.79290 6868 ft 284 kts 33°
2026-05-04 23:24 18.57987 -68.78232 7511 ft 290 kts 32°
2026-05-04 23:24 18.59743 -68.77168 8277 ft 292 kts 32°
2026-05-04 23:24 18.61515 -68.76097 9031 ft 296 kts 31°
2026-05-04 23:25 18.63314 -68.75008 9739 ft 301 kts 31°
2026-05-04 23:25 18.65143 -68.73901 10355 ft 309 kts 31°
2026-05-04 23:25 18.67076 -68.72731 10545 ft 331 kts 31°
2026-05-04 23:25 18.69107 -68.71499 10773 ft 350 kts 30°
2026-05-04 23:26 18.71260 -68.70194 11178 ft 361 kts 30°
2026-05-04 23:26 18.73448 -68.68868 11856 ft 362 kts 30°
2026-05-04 23:26 18.75652 -68.67532 12416 ft 368 kts 30°
2026-05-04 23:26 18.77874 -68.66185 13114 ft 369 kts 30°
2026-05-04 23:27 18.80111 -68.64827 13681 ft 374 kts 29°
2026-05-04 23:27 18.82375 -68.63453 14274 ft 376 kts 29°
2026-05-04 23:27 18.84652 -68.62070 14801 ft 379 kts 28°
2026-05-04 23:27 18.86948 -68.60674 15320 ft 383 kts 29°
2026-05-04 23:28 18.89275 -68.59262 15894 ft 385 kts 27°
2026-05-04 23:28 18.91601 -68.57849 16476 ft 387 kts 27°
2026-05-04 23:28 18.93949 -68.56422 16981 ft 391 kts 27°
2026-05-04 23:28 18.96321 -68.54979 17507 ft 395 kts 27°
2026-05-04 23:29 18.98711 -68.53525 18039 ft 398 kts 27°
2026-05-04 23:29 19.01118 -68.52060 18525 ft 401 kts 27°
2026-05-04 23:29 19.03548 -68.50580 18930 ft 405 kts 27°
2026-05-04 23:29 19.05972 -68.49103 19345 ft 408 kts 27°
2026-05-04 23:30 19.08437 -68.47600 19779 ft 411 kts 28°
2026-05-04 23:30 19.10928 -68.46082 20202 ft 415 kts 28°
2026-05-04 23:30 19.13440 -68.44549 20611 ft 418 kts 28°
2026-05-04 23:30 19.15966 -68.43007 20996 ft 422 kts 28°
2026-05-04 23:31 19.18538 -68.41438 21318 ft 427 kts 28°
2026-05-04 23:31 19.21125 -68.39866 21734 ft 429 kts 27°
2026-05-04 23:31 19.23905 -68.38732 22096 ft 430 kts
2026-05-04 23:31 19.26858 -68.38212 22517 ft 431 kts
2026-05-04 23:32 19.29836 -68.37729 22856 ft 435 kts
2026-05-04 23:32 19.32853 -68.37239 23185 ft 439 kts
2026-05-04 23:32 19.35877 -68.36736 23530 ft 442 kts
2026-05-04 23:32 19.38924 -68.36216 23836 ft 445 kts
2026-05-04 23:33 19.41964 -68.35686 24171 ft 446 kts
2026-05-04 23:33 19.45025 -68.35146 24521 ft 447 kts
2026-05-04 23:33 19.48094 -68.34599 24839 ft 448 kts
2026-05-04 23:33 19.51184 -68.34048 25139 ft 450 kts
2026-05-04 23:34 19.54279 -68.33495 25448 ft 452 kts
2026-05-04 23:34 19.57387 -68.32940 25769 ft 453 kts
2026-05-04 23:34 19.60501 -68.32384 26070 ft 455 kts
2026-05-04 23:34 19.63631 -68.31825 26369 ft 456 kts
2026-05-04 23:35 19.66713 -68.31274 26658 ft 458 kts
2026-05-04 23:35 19.69859 -68.30712 26941 ft 459 kts
2026-05-04 23:35 19.73021 -68.30147 27223 ft 461 kts
2026-05-04 23:35 19.76189 -68.29580 27517 ft 462 kts
2026-05-04 23:36 19.79369 -68.29012 27768 ft 465 kts
2026-05-04 23:36 19.82566 -68.28440 28015 ft 467 kts
2026-05-04 23:36 19.85775 -68.27865 28291 ft 468 kts
2026-05-04 23:36 19.88990 -68.27290 28566 ft 469 kts
2026-05-04 23:37 19.92215 -68.26712 28816 ft 470 kts
2026-05-04 23:37 19.95459 -68.26130 29053 ft 472 kts
2026-05-04 23:37 19.98701 -68.25549 29305 ft 473 kts
2026-05-04 23:37 20.01955 -68.24965 29543 ft 475 kts
2026-05-04 23:38 20.05216 -68.24380 29772 ft 476 kts
2026-05-04 23:38 20.08448 -68.23800 30005 ft 477 kts
2026-05-04 23:38 20.11729 -68.23210 30294 ft 476 kts
2026-05-04 23:38 20.14992 -68.22623 30593 ft 475 kts
2026-05-04 23:39 20.18250 -68.22037 30876 ft 474 kts
2026-05-04 23:39 20.21506 -68.21451 31113 ft 474 kts
2026-05-04 23:39 20.24758 -68.20866 31365 ft 474 kts
2026-05-04 23:39 20.28011 -68.20281 31654 ft 474 kts
2026-05-04 23:40 20.31259 -68.19696 31943 ft 473 kts
2026-05-04 23:40 20.34501 -68.19111 32225 ft 472 kts
2026-05-04 23:40 20.37736 -68.18528 32529 ft 471 kts
2026-05-04 23:40 20.40976 -68.17944 32753 ft 472 kts
2026-05-04 23:41 20.44221 -68.17360 32971 ft 473 kts
2026-05-04 23:41 20.47466 -68.16774 33254 ft 472 kts
2026-05-04 23:41 20.50707 -68.16189 33562 ft 471 kts
2026-05-04 23:41 20.53940 -68.15604 33845 ft 471 kts
2026-05-04 23:42 20.57173 -68.15020 34090 ft 471 kts
2026-05-04 23:42 20.60406 -68.14436 34335 ft 470 kts
2026-05-04 23:42 20.63588 -68.13860 34612 ft 468 kts
2026-05-04 23:42 20.66800 -68.13278 34900 ft 466 kts
2026-05-04 23:43 20.70005 -68.12777 35052 ft 465 kts
2026-05-04 23:43 20.73235 -68.12752 35061 ft 463 kts 350°
2026-05-04 23:43 20.79578 -68.13755 35052 ft 459 kts 346°
2026-05-04 23:44 20.85854 -68.14857 35049 ft 455 kts 347°
2026-05-04 23:44 20.92102 -68.15910 35055 ft 453 kts 347°
2026-05-04 23:45 20.98332 -68.16931 35060 ft 452 kts 347°
2026-05-04 23:45 21.04517 -68.17937 35067 ft 452 kts 347°
2026-05-04 23:46 21.10746 -68.18953 35070 ft 453 kts 347°
2026-05-04 23:46 21.16986 -68.19972 35068 ft 455 kts 347°
2026-05-04 23:47 21.23261 -68.20998 35066 ft 457 kts 347°
2026-05-04 23:47 21.29560 -68.22028 35068 ft 459 kts 347°
2026-05-04 23:48 21.35888 -68.23064 35069 ft 461 kts 346°
2026-05-04 23:48 21.42235 -68.24104 35075 ft 462 kts 346°
2026-05-04 23:49 21.48595 -68.25147 35063 ft 462 kts 346°
2026-05-04 23:49 21.54953 -68.26204 35058 ft 461 kts 345°
2026-05-04 23:50 21.61233 -68.27597 35068 ft 459 kts 342°
2026-05-04 23:50 21.67416 -68.29114 35067 ft 458 kts 342°
2026-05-04 23:51 21.73634 -68.30613 35065 ft 458 kts 342°
2026-05-04 23:51 21.79852 -68.32082 35068 ft 457 kts 342°
2026-05-04 23:52 21.86058 -68.33541 35069 ft 456 kts 342°
2026-05-04 23:52 21.92254 -68.35001 35068 ft 455 kts 342°
2026-05-04 23:53 21.98440 -68.36460 35071 ft 454 kts 342°
2026-05-04 23:53 22.04617 -68.37920 35070 ft 454 kts 342°
2026-05-04 23:54 22.10780 -68.39376 35074 ft 453 kts 342°
2026-05-04 23:54 22.16911 -68.40828 35074 ft 453 kts 342°
2026-05-04 23:55 22.23070 -68.42290 35074 ft 453 kts 342°
2026-05-04 23:56 22.32319 -68.44487 35073 ft 454 kts 342°
2026-05-04 23:56 22.38493 -68.45956 35073 ft 454 kts 342°
2026-05-04 23:57 22.44679 -68.47428 35075 ft 455 kts 342°
2026-05-04 23:57 22.50837 -68.48896 35073 ft 455 kts 342°
2026-05-04 23:58 22.57025 -68.50372 35093 ft 455 kts 341°
2026-05-04 23:58 22.63220 -68.51851 35079 ft 456 kts 341°
2026-05-04 23:59 22.69420 -68.53332 35080 ft 456 kts 341°
2026-05-04 23:59 22.75589 -68.54807 35075 ft 456 kts 341°
2026-05-05 00:00 22.81799 -68.56294 35072 ft 456 kts 341°
2026-05-05 00:00 22.88004 -68.57780 35072 ft 456 kts 341°
2026-05-05 00:01 22.94207 -68.59269 35085 ft 456 kts 341°
2026-05-05 00:01 23.00415 -68.60759 35070 ft 457 kts 341°
2026-05-05 00:02 23.06618 -68.62244 35073 ft 457 kts 341°
2026-05-05 00:02 23.12833 -68.63728 35078 ft 456 kts 341°
2026-05-05 00:03 23.18996 -68.65203 35068 ft 456 kts 341°
2026-05-05 00:03 23.25203 -68.66690 35068 ft 456 kts 341°
2026-05-05 00:04 23.30361 -68.67928 35068 ft 456 kts 341°
2026-05-05 00:04 23.36565 -68.69417 35075 ft 456 kts 341°
2026-05-05 00:05 23.42772 -68.70909 35071 ft 456 kts 341°
2026-05-05 00:05 23.49984 -68.72644 35086 ft 456 kts 341°
2026-05-05 00:06 23.55141 -68.73886 35078 ft 456 kts 341°
2026-05-05 00:06 23.61334 -68.75383 35072 ft 456 kts 341°
2026-05-05 00:07 23.67536 -68.76894 35070 ft 456 kts 341°
2026-05-05 00:07 23.73737 -68.78410 35071 ft 456 kts 341°
2026-05-05 00:08 23.79939 -68.79925 35073 ft 456 kts 341°
2026-05-05 00:08 23.86140 -68.81442 35074 ft 456 kts 340°
2026-05-05 00:09 23.92291 -68.82947 35071 ft 456 kts 340°
2026-05-05 00:09 23.98497 -68.84467 35071 ft 456 kts 340°
2026-05-05 00:10 24.04693 -68.85986 35073 ft 456 kts 340°
2026-05-05 00:10 24.10895 -68.87508 35068 ft 456 kts 340°
2026-05-05 00:11 24.17056 -68.89022 35074 ft 456 kts 340°
2026-05-05 00:11 24.23252 -68.90546 35068 ft 456 kts 340°
2026-05-05 00:12 24.29449 -68.92072 35062 ft 456 kts 340°
2026-05-05 00:12 24.35646 -68.93599 35065 ft 456 kts 340°
2026-05-05 00:13 24.41846 -68.95127 35069 ft 456 kts 340°
2026-05-05 00:13 24.48042 -68.96641 35074 ft 456 kts 340°
2026-05-05 00:14 24.54243 -68.98156 35063 ft 457 kts 340°
2026-05-05 00:14 24.60412 -68.99665 35063 ft 457 kts 340°
2026-05-05 00:15 24.66615 -69.01186 35061 ft 457 kts 340°
2026-05-05 00:15 24.72823 -69.02710 35064 ft 457 kts 340°
2026-05-05 00:16 24.79034 -69.04236 35067 ft 458 kts 339°
2026-05-05 00:16 24.85254 -69.05766 35063 ft 458 kts 339°
2026-05-05 00:17 24.91479 -69.07299 35057 ft 459 kts 339°
2026-05-05 00:17 24.97711 -69.08835 35058 ft 459 kts 339°
2026-05-05 00:18 25.03967 -69.10303 35084 ft 461 kts 341°
2026-05-05 00:18 25.10299 -69.11583 35063 ft 463 kts 341°
2026-05-05 00:19 25.16642 -69.12845 35062 ft 463 kts 341°
2026-05-05 00:19 25.22984 -69.14134 35057 ft 463 kts 341°
2026-05-05 00:20 25.29319 -69.15440 35057 ft 463 kts 341°
2026-05-05 00:20 25.35613 -69.16742 35071 ft 463 kts 341°
2026-05-05 00:21 25.41951 -69.18055 35061 ft 463 kts 341°
2026-05-05 00:21 25.48286 -69.19369 35074 ft 463 kts 341°
2026-05-05 00:22 25.54623 -69.20683 35056 ft 463 kts 341°
2026-05-05 00:22 25.60963 -69.22000 35057 ft 463 kts 341°
2026-05-05 00:23 25.67309 -69.23319 35068 ft 463 kts 341°
2026-05-05 00:23 25.73605 -69.24629 35062 ft 463 kts 341°
2026-05-05 00:24 25.79946 -69.25950 35056 ft 463 kts 341°
2026-05-05 00:24 25.86276 -69.27270 35055 ft 463 kts 341°
2026-05-05 00:25 25.92607 -69.28591 35055 ft 462 kts 341°
2026-05-05 00:25 25.98931 -69.29914 35062 ft 462 kts 342°
2026-05-05 00:26 26.05258 -69.31238 35056 ft 462 kts 342°
2026-05-05 00:26 26.11566 -69.32559 35053 ft 461 kts 342°
2026-05-05 00:27 26.17871 -69.33881 35059 ft 460 kts 342°
2026-05-05 00:27 26.24162 -69.35201 35059 ft 460 kts 342°
2026-05-05 00:28 26.30412 -69.36515 35058 ft 459 kts 342°
2026-05-05 00:28 26.36701 -69.37838 35060 ft 459 kts 342°
2026-05-05 00:29 26.42995 -69.39164 35062 ft 459 kts 342°
2026-05-05 00:29 26.49267 -69.40487 35057 ft 459 kts 342°
2026-05-05 00:30 26.55544 -69.41813 35070 ft 460 kts 342°
2026-05-05 00:30 26.61792 -69.43134 35067 ft 460 kts 342°
2026-05-05 00:31 26.68091 -69.44466 35060 ft 461 kts 342°
2026-05-05 00:31 26.74401 -69.45803 35060 ft 461 kts 342°
2026-05-05 00:32 26.80716 -69.47142 35059 ft 462 kts 342°
2026-05-05 00:32 26.87038 -69.48485 35060 ft 463 kts 342°
2026-05-05 00:33 26.93370 -69.49831 35065 ft 463 kts 342°
2026-05-05 00:33 26.99715 -69.51182 35061 ft 464 kts 342°
2026-05-05 00:34 27.06061 -69.52534 35055 ft 465 kts 342°
2026-05-05 00:34 27.12419 -69.53890 35088 ft 465 kts 342°
2026-05-05 00:35 27.18790 -69.55251 35070 ft 467 kts 342°
2026-05-05 00:35 27.25142 -69.56610 35057 ft 468 kts 342°
2026-05-05 00:36 27.31538 -69.57979 35057 ft 468 kts 342°
2026-05-05 00:36 27.37937 -69.59350 35060 ft 468 kts 342°
2026-05-05 00:37 27.44348 -69.60725 35068 ft 469 kts 341°
2026-05-05 00:37 27.50762 -69.62103 35061 ft 469 kts 341°
2026-05-05 00:38 27.57178 -69.63484 35057 ft 469 kts 341°
2026-05-05 00:38 27.63594 -69.64866 35056 ft 469 kts 341°
2026-05-05 00:39 27.70010 -69.66249 35062 ft 469 kts 341°
2026-05-05 00:39 27.76423 -69.67634 35066 ft 469 kts 340°
2026-05-05 00:40 27.82833 -69.69020 35066 ft 469 kts 340°
2026-05-05 00:40 27.89200 -69.70399 35061 ft 468 kts 340°
2026-05-05 00:41 27.95608 -69.71788 35063 ft 468 kts 340°
2026-05-05 00:41 28.02008 -69.73177 35080 ft 468 kts 340°
2026-05-05 00:42 28.08407 -69.74568 35075 ft 468 kts 340°
2026-05-05 00:42 28.14799 -69.75959 35066 ft 467 kts 340°
2026-05-05 00:43 28.21181 -69.77349 35070 ft 466 kts 340°
2026-05-05 00:43 28.27545 -69.78738 35070 ft 466 kts 340°
2026-05-05 00:44 28.33868 -69.80120 35065 ft 466 kts 340°
2026-05-05 00:44 28.40226 -69.81510 35082 ft 465 kts 340°
2026-05-05 00:45 28.46588 -69.82903 35075 ft 465 kts 340°
2026-05-05 00:45 28.52933 -69.84295 35088 ft 464 kts 340°
2026-05-05 00:46 28.59282 -69.85688 35115 ft 465 kts 340°
2026-05-05 00:46 28.65641 -69.87087 35097 ft 465 kts 340°
2026-05-05 00:47 28.71958 -69.88476 35091 ft 464 kts 340°
2026-05-05 00:47 28.78288 -69.89869 35081 ft 463 kts 340°
2026-05-05 00:48 28.84602 -69.91262 35085 ft 461 kts 340°
2026-05-05 00:48 28.90901 -69.92654 35092 ft 461 kts 340°
2026-05-05 00:49 28.97186 -69.94044 35087 ft 460 kts 340°
2026-05-05 00:49 29.03462 -69.95433 35091 ft 459 kts 340°
2026-05-05 00:50 29.09731 -69.96824 35094 ft 458 kts 340°
2026-05-05 00:50 29.15988 -69.98213 35095 ft 458 kts 340°
2026-05-05 00:51 29.22250 -69.99605 35094 ft 458 kts 340°
2026-05-05 00:51 29.27447 -70.00762 35097 ft 458 kts 340°
2026-05-05 00:52 29.34739 -70.02386 35098 ft 459 kts 340°
2026-05-05 00:52 29.39954 -70.03550 35099 ft 459 kts 340°
2026-05-05 00:53 29.46239 -70.04954 35111 ft 461 kts 340°
2026-05-05 00:53 29.52542 -70.06363 35102 ft 461 kts 340°
2026-05-05 00:54 29.58858 -70.07777 35104 ft 462 kts 340°
2026-05-05 00:54 29.65171 -70.09191 35110 ft 462 kts 340°
2026-05-05 00:55 29.71490 -70.10609 35143 ft 463 kts 340°
2026-05-05 00:55 29.77778 -70.12023 35124 ft 463 kts 340°
2026-05-05 00:56 29.84107 -70.13447 35113 ft 463 kts 340°
2026-05-05 00:56 29.90436 -70.14872 35117 ft 463 kts 340°
2026-05-05 00:57 29.96759 -70.16299 35117 ft 463 kts 340°
2026-05-05 00:57 30.03081 -70.17727 35127 ft 463 kts 339°
2026-05-05 00:58 30.09398 -70.19156 35127 ft 462 kts 340°
2026-05-05 00:58 30.15700 -70.20582 35152 ft 461 kts 339°
2026-05-05 00:59 30.21991 -70.22009 35138 ft 460 kts 339°
2026-05-05 00:59 30.28257 -70.23432 35149 ft 458 kts 339°
2026-05-05 01:00 30.34489 -70.24849 35133 ft 455 kts 339°
2026-05-05 01:00 30.40702 -70.26262 35129 ft 453 kts 339°
2026-05-05 01:01 30.46835 -70.27655 35133 ft 451 kts 339°
2026-05-05 01:01 30.52988 -70.29056 35133 ft 450 kts 339°
2026-05-05 01:02 30.59137 -70.30461 35143 ft 451 kts 339°
2026-05-05 01:02 30.65302 -70.31870 35147 ft 451 kts 339°
2026-05-05 01:03 30.71465 -70.33279 35142 ft 452 kts 339°
2026-05-05 01:03 30.77641 -70.34694 35147 ft 452 kts 339°
2026-05-05 01:04 30.83831 -70.36113 35161 ft 454 kts 339°
2026-05-05 01:04 30.93109 -70.38245 35155 ft 456 kts 339°
2026-05-05 01:05 30.99336 -70.39677 35153 ft 457 kts 339°
2026-05-05 01:05 31.05584 -70.41116 35153 ft 458 kts 339°
2026-05-05 01:06 31.11844 -70.42559 35160 ft 459 kts 339°
2026-05-05 01:06 31.18118 -70.44009 35167 ft 460 kts 339°
2026-05-05 01:07 31.24398 -70.45461 35161 ft 460 kts 339°
2026-05-05 01:07 31.30690 -70.46917 35162 ft 460 kts 339°
2026-05-05 01:08 31.36942 -70.48367 35193 ft 460 kts 339°
2026-05-05 01:08 31.43238 -70.49829 35173 ft 461 kts 339°
2026-05-05 01:09 31.49533 -70.51294 35169 ft 461 kts 339°
2026-05-05 01:09 31.55821 -70.52761 35168 ft 460 kts 339°
2026-05-05 01:10 31.62104 -70.54230 35200 ft 460 kts 339°
2026-05-05 01:10 31.68391 -70.55702 35173 ft 460 kts 339°
2026-05-05 01:11 31.74667 -70.57173 35177 ft 459 kts 339°
2026-05-05 01:11 31.80874 -70.58629 35174 ft 457 kts 339°
2026-05-05 01:12 31.87105 -70.60093 35177 ft 456 kts 339°
2026-05-05 01:12 31.93321 -70.61556 35179 ft 455 kts 339°
2026-05-05 01:13 31.99529 -70.63020 35183 ft 454 kts 339°
2026-05-05 01:13 32.05726 -70.64483 35183 ft 454 kts 339°
2026-05-05 01:14 32.11878 -70.65937 35183 ft 454 kts 339°
2026-05-05 01:14 32.18075 -70.67405 35225 ft 454 kts 338°
2026-05-05 01:15 32.24288 -70.68878 35196 ft 455 kts 338°
2026-05-05 01:15 32.30504 -70.70353 35181 ft 456 kts 338°
2026-05-05 01:16 32.36728 -70.71831 35184 ft 455 kts 338°
2026-05-05 01:16 32.42939 -70.73309 35185 ft 455 kts 338°
2026-05-05 01:17 32.49149 -70.74790 35192 ft 455 kts 338°
2026-05-05 01:17 32.55361 -70.76272 35188 ft 455 kts 338°
2026-05-05 01:18 32.61561 -70.77753 35186 ft 454 kts 338°
2026-05-05 01:18 32.67703 -70.79222 35186 ft 453 kts 338°
2026-05-05 01:19 32.73872 -70.80701 35212 ft 452 kts 337°
2026-05-05 01:19 32.80035 -70.82180 35199 ft 451 kts 337°
2026-05-05 01:20 32.86184 -70.83658 35193 ft 450 kts 337°
2026-05-05 01:20 32.92310 -70.85132 35198 ft 450 kts 337°
2026-05-05 01:21 32.98510 -70.86635 35410 ft 457 kts 337°
2026-05-05 01:21 33.01631 -70.87389 35672 ft 457 kts 337°
2026-05-05 01:21 33.04745 -70.88138 35983 ft 456 kts 337°
2026-05-05 01:22 33.07843 -70.88882 36298 ft 454 kts 337°
2026-05-05 01:22 33.10902 -70.89620 36501 ft 454 kts 337°
2026-05-05 01:22 33.14006 -70.90372 36674 ft 456 kts 337°
2026-05-05 01:22 33.17114 -70.91127 36871 ft 456 kts 337°
2026-05-05 01:23 33.20227 -70.91881 37120 ft 455 kts 336°
2026-05-05 01:23 33.23338 -70.92636 37190 ft 458 kts 336°
2026-05-05 01:23 33.29612 -70.94162 37195 ft 460 kts 337°
2026-05-05 01:24 33.35841 -70.95668 37183 ft 453 kts 336°
2026-05-05 01:24 33.42006 -70.97168 37197 ft 451 kts 336°
2026-05-05 01:25 33.48141 -70.98667 37197 ft 450 kts 336°
2026-05-05 01:25 33.54280 -71.00169 37212 ft 450 kts 337°
2026-05-05 01:26 33.60425 -71.01673 37203 ft 450 kts 337°
2026-05-05 01:26 33.66527 -71.03167 37196 ft 450 kts 337°
2026-05-05 01:27 33.72678 -71.04675 37195 ft 451 kts 337°
2026-05-05 01:27 33.78826 -71.06186 37209 ft 452 kts 337°
2026-05-05 01:28 33.84988 -71.07703 37207 ft 452 kts 337°
2026-05-05 01:28 33.91163 -71.09224 37204 ft 453 kts 337°
2026-05-05 01:29 33.97336 -71.10748 37193 ft 453 kts 337°
2026-05-05 01:29 34.03511 -71.12274 37236 ft 453 kts 338°
2026-05-05 01:30 34.09711 -71.13809 37208 ft 454 kts 338°
2026-05-05 01:30 34.15898 -71.15342 37192 ft 454 kts 338°
2026-05-05 01:31 34.22047 -71.16868 37191 ft 454 kts 338°
2026-05-05 01:31 34.28229 -71.18405 37233 ft 453 kts 338°
2026-05-05 01:32 34.34412 -71.19945 37204 ft 453 kts 338°
2026-05-05 01:32 34.40586 -71.21485 37194 ft 453 kts 338°
2026-05-05 01:33 34.46759 -71.23026 37195 ft 452 kts 338°
2026-05-05 01:33 34.52917 -71.24567 37196 ft 452 kts 338°
2026-05-05 01:34 34.59033 -71.26100 37196 ft 451 kts 338°
2026-05-05 01:34 34.65177 -71.27641 37196 ft 451 kts 338°
2026-05-05 01:35 34.71323 -71.29185 37197 ft 451 kts 338°
2026-05-05 01:35 34.77467 -71.30730 37196 ft 451 kts 338°
2026-05-05 01:36 34.83617 -71.32280 37202 ft 452 kts 339°
2026-05-05 01:36 34.89777 -71.33834 37198 ft 452 kts 339°
2026-05-05 01:37 34.95939 -71.35390 37195 ft 452 kts 339°
2026-05-05 01:37 35.02105 -71.36950 37197 ft 452 kts 339°
2026-05-05 01:38 35.07222 -71.38248 37202 ft 452 kts 339°
2026-05-05 01:38 35.13389 -71.39813 37199 ft 452 kts 339°
2026-05-05 01:39 35.20549 -71.41633 37190 ft 452 kts 339°
2026-05-05 01:39 35.25712 -71.42947 37189 ft 452 kts 339°
2026-05-05 01:40 35.31846 -71.44512 37204 ft 452 kts 339°
2026-05-05 01:40 35.38007 -71.46085 37199 ft 451 kts 339°
2026-05-05 01:41 35.44116 -71.47647 37189 ft 451 kts 339°
2026-05-05 01:41 35.50256 -71.49220 37186 ft 450 kts 339°
2026-05-05 01:42 35.56395 -71.50796 37216 ft 450 kts 339°
2026-05-05 01:42 35.62520 -71.52370 37199 ft 449 kts 339°
2026-05-05 01:43 35.68645 -71.53944 37189 ft 449 kts 339°
2026-05-05 01:43 35.74724 -71.55508 37192 ft 448 kts 339°
2026-05-05 01:44 35.80825 -71.57081 37216 ft 448 kts 339°
2026-05-05 01:44 35.86929 -71.58657 37197 ft 448 kts 339°
2026-05-05 01:45 35.93023 -71.60233 37178 ft 447 kts 339°
2026-05-05 01:45 35.99109 -71.61809 37175 ft 446 kts 339°
2026-05-05 01:46 36.05178 -71.63384 37210 ft 445 kts 339°
2026-05-05 01:46 36.11245 -71.64961 37180 ft 445 kts 339°
2026-05-05 01:47 36.17266 -71.66528 37172 ft 444 kts 339°
2026-05-05 01:47 36.23316 -71.68105 37171 ft 444 kts 339°
2026-05-05 01:48 36.29359 -71.69683 37204 ft 443 kts 339°
2026-05-05 01:48 36.35399 -71.71263 37177 ft 443 kts 339°
2026-05-05 01:49 36.41433 -71.72843 37164 ft 443 kts 339°
2026-05-05 01:49 36.47460 -71.74424 37166 ft 442 kts 339°
2026-05-05 01:50 36.53440 -71.75996 37199 ft 442 kts 339°
2026-05-05 01:50 36.59466 -71.77582 37166 ft 442 kts 339°
2026-05-05 01:51 36.65496 -71.79172 37157 ft 442 kts 339°
2026-05-05 01:51 36.71518 -71.80762 37156 ft 442 kts 339°
2026-05-05 01:52 36.77538 -71.82354 37191 ft 442 kts 339°
2026-05-05 01:52 36.83567 -71.83951 37158 ft 442 kts 340°
2026-05-05 01:53 36.89580 -71.85545 37141 ft 441 kts 340°
2026-05-05 01:53 36.95583 -71.87140 37141 ft 440 kts 340°
2026-05-05 01:54 37.01568 -71.88733 37139 ft 439 kts 340°
2026-05-05 01:54 37.07506 -71.90316 37133 ft 438 kts 340°
2026-05-05 01:55 37.13465 -71.91908 37143 ft 437 kts 340°
2026-05-05 01:55 37.19411 -71.93499 37129 ft 436 kts 340°
2026-05-05 01:56 37.25342 -71.95088 37157 ft 435 kts 340°
2026-05-05 01:56 37.31280 -71.96589 37128 ft 439 kts 345°
2026-05-05 01:57 37.37445 -71.96960 37124 ft 444 kts 351°
2026-05-05 01:57 37.43625 -71.97138 37127 ft 443 kts 350°
2026-05-05 01:58 37.49745 -71.97382 37148 ft 442 kts 350°
2026-05-05 01:58 37.55893 -71.97669 37123 ft 441 kts 350°
2026-05-05 01:59 37.62030 -71.97958 37112 ft 441 kts 350°
2026-05-05 01:59 37.68164 -71.98209 37113 ft 442 kts 352°
2026-05-05 02:00 37.74349 -71.97999 37134 ft 445 kts 355°
2026-05-05 02:00 37.80556 -71.97636 37122 ft 446 kts 355°
2026-05-05 02:01 37.86752 -71.97310 37110 ft 445 kts 355°
2026-05-05 02:01 37.92942 -71.97018 37106 ft 445 kts 355°
2026-05-05 02:02 37.99133 -71.96734 37111 ft 445 kts 356°
2026-05-05 02:02 38.05283 -71.96454 37102 ft 445 kts 356°
2026-05-05 02:03 38.11470 -71.96169 37100 ft 444 kts 356°
2026-05-05 02:03 38.17655 -71.95884 37125 ft 444 kts 356°
2026-05-05 02:04 38.23833 -71.95598 37103 ft 444 kts 356°
2026-05-05 02:04 38.30008 -71.95334 37098 ft 443 kts 355°
2026-05-05 02:05 38.36125 -71.95261 37088 ft 441 kts 354°
2026-05-05 02:05 38.42270 -71.95222 37100 ft 441 kts 355°
2026-05-05 02:06 38.48406 -71.95159 37094 ft 441 kts 355°
2026-05-05 02:06 38.54538 -71.95084 37089 ft 440 kts 355°
2026-05-05 02:07 38.60671 -71.95010 37093 ft 440 kts 355°
2026-05-05 02:07 38.66801 -71.94932 37094 ft 440 kts 355°
2026-05-05 02:08 38.72926 -71.94848 37083 ft 440 kts 355°
2026-05-05 02:08 38.79046 -71.94766 37082 ft 439 kts 355°
2026-05-05 02:09 38.85131 -71.94684 37094 ft 439 kts 356°
2026-05-05 02:09 38.91247 -71.94602 37081 ft 439 kts 356°
2026-05-05 02:10 38.97310 -71.94999 37069 ft 430 kts 340°
2026-05-05 02:10 39.00092 -71.96289 37082 ft 422 kts 329°
2026-05-05 02:10 39.02572 -71.98252 37075 ft 416 kts 317°
2026-05-05 02:11 39.07014 -72.03014 37095 ft 415 kts 316°
2026-05-05 02:11 39.11454 -72.07739 37078 ft 417 kts 317°
2026-05-05 02:12 39.18216 -72.14837 37066 ft 418 kts 317°
2026-05-05 02:13 39.22730 -72.19588 37065 ft 419 kts 317°
2026-05-05 02:13 39.27227 -72.24332 37065 ft 420 kts 317°
2026-05-05 02:14 39.31753 -72.29115 37056 ft 421 kts 317°
2026-05-05 02:14 39.36283 -72.33910 37057 ft 421 kts 317°
2026-05-05 02:15 39.40813 -72.38713 37058 ft 421 kts 317°
2026-05-05 02:15 39.45344 -72.43525 37051 ft 421 kts 317°
2026-05-05 02:16 39.49868 -72.48339 37050 ft 421 kts 317°
2026-05-05 02:16 39.54394 -72.53163 37052 ft 421 kts 317°
2026-05-05 02:17 39.58906 -72.57981 37055 ft 420 kts 317°
2026-05-05 02:17 39.63416 -72.62805 37035 ft 420 kts 317°
2026-05-05 02:18 39.67895 -72.67605 37039 ft 420 kts 317°
2026-05-05 02:18 39.72394 -72.72434 37035 ft 419 kts 317°
2026-05-05 02:19 39.76885 -72.77264 37035 ft 419 kts 317°
2026-05-05 02:19 39.81378 -72.82103 37027 ft 419 kts 317°
2026-05-05 02:20 39.85804 -72.87020 37047 ft 418 kts 316°
2026-05-05 02:20 39.90166 -72.92049 37024 ft 418 kts 315°
2026-05-05 02:21 39.94523 -72.97072 37012 ft 418 kts 316°
2026-05-05 02:21 39.98862 -73.02059 37019 ft 418 kts 316°
2026-05-05 02:22 40.03225 -73.07076 37013 ft 418 kts 316°
2026-05-05 02:22 40.07578 -73.12090 37006 ft 417 kts 316°
2026-05-05 02:23 40.11934 -73.17116 37012 ft 417 kts 316°
2026-05-05 02:23 40.16289 -73.22151 36996 ft 418 kts 316°
2026-05-05 02:24 40.20612 -73.27171 36986 ft 417 kts 315°
2026-05-05 02:24 40.24955 -73.32224 36988 ft 417 kts 315°
2026-05-05 02:25 40.29289 -73.37275 36971 ft 417 kts 315°
2026-05-05 02:25 40.33614 -73.42323 36965 ft 416 kts 315°
2026-05-05 02:26 40.37906 -73.47341 36984 ft 416 kts 315°
2026-05-05 02:26 40.42227 -73.52398 36954 ft 415 kts 315°
2026-05-05 02:27 40.46540 -73.57450 36948 ft 415 kts 316°
2026-05-05 02:27 40.50846 -73.62483 36954 ft 414 kts 316°
2026-05-05 02:28 40.54447 -73.66700 36957 ft 413 kts 316°
2026-05-05 02:28 40.58702 -73.71692 36949 ft 412 kts 316°
2026-05-05 02:29 40.62976 -73.76723 36972 ft 411 kts 315°
2026-05-05 02:29 40.66871 -73.82194 36951 ft 409 kts 309°
2026-05-05 02:30 40.70587 -73.87862 36930 ft 408 kts 309°
2026-05-05 02:30 40.74295 -73.93509 36934 ft 407 kts 309°
2026-05-05 02:31 40.78018 -73.99134 36957 ft 407 kts 309°
2026-05-05 02:31 40.81750 -74.04758 36926 ft 407 kts 309°
2026-05-05 02:32 40.85483 -74.10386 36921 ft 407 kts 309°
2026-05-05 02:32 40.89219 -74.16028 36952 ft 407 kts 309°
2026-05-05 02:33 40.92950 -74.21673 36925 ft 408 kts 309°
2026-05-05 02:33 40.96659 -74.27297 36927 ft 408 kts 309°
2026-05-05 02:34 41.00396 -74.32972 36917 ft 408 kts 309°
2026-05-05 02:34 41.04125 -74.38647 36921 ft 408 kts 309°
2026-05-05 02:35 41.07843 -74.44315 36908 ft 408 kts 309°
2026-05-05 02:35 41.11563 -74.49998 36919 ft 407 kts 309°
2026-05-05 02:36 41.15275 -74.55679 36934 ft 407 kts 308°
2026-05-05 02:36 41.18982 -74.61363 36920 ft 406 kts 309°
2026-05-05 02:37 41.22675 -74.67035 36914 ft 406 kts 308°
2026-05-05 02:37 41.26363 -74.72711 36918 ft 404 kts 308°
2026-05-05 02:38 41.30013 -74.78339 36913 ft 404 kts 308°
2026-05-05 02:38 41.33673 -74.83994 36905 ft 403 kts 308°
2026-05-05 02:39 41.37329 -74.89652 36896 ft 402 kts 308°
2026-05-05 02:39 41.40969 -74.95297 36890 ft 401 kts 308°
2026-05-05 02:40 41.44609 -75.00951 36896 ft 401 kts 308°
2026-05-05 02:40 41.48245 -75.06612 36882 ft 402 kts 308°
2026-05-05 02:41 41.51880 -75.12280 36885 ft 402 kts 308°
2026-05-05 02:41 41.55514 -75.17957 36881 ft 402 kts 308°
2026-05-05 02:42 41.59128 -75.23616 36869 ft 403 kts 308°
2026-05-05 02:42 41.62770 -75.29327 36868 ft 403 kts 308°
2026-05-05 02:43 41.66411 -75.35048 36867 ft 404 kts 308°
2026-05-05 02:43 41.70054 -75.40783 36859 ft 405 kts 308°
2026-05-05 02:44 41.73700 -75.46534 36861 ft 405 kts 307°
2026-05-05 02:44 41.77340 -75.52286 36846 ft 404 kts 307°
2026-05-05 02:45 41.80971 -75.58037 36842 ft 404 kts 307°
2026-05-05 02:45 41.84571 -75.63748 36851 ft 403 kts 307°
2026-05-05 02:46 41.88191 -75.69502 36828 ft 403 kts 307°
2026-05-05 02:46 41.91805 -75.75253 36826 ft 402 kts 307°
2026-05-05 02:47 41.95406 -75.81002 36816 ft 402 kts 307°
2026-05-05 02:47 41.99005 -75.86758 36821 ft 402 kts 307°
2026-05-05 02:48 42.02596 -75.92511 36817 ft 402 kts 307°
2026-05-05 02:48 42.06187 -75.98274 36817 ft 402 kts 307°
2026-05-05 02:49 42.09772 -76.04039 36811 ft 402 kts 307°
2026-05-05 02:49 42.13362 -76.09824 36809 ft 402 kts 307°
2026-05-05 02:50 42.16490 -76.15950 36794 ft 398 kts 293°
2026-05-05 02:50 42.18642 -76.22827 36806 ft 399 kts 291°
2026-05-05 02:51 42.20771 -76.29754 36817 ft 401 kts 291°
2026-05-05 02:51 42.22920 -76.36707 36796 ft 402 kts 291°
2026-05-05 02:52 42.25085 -76.43694 36790 ft 404 kts 291°
2026-05-05 02:52 42.27253 -76.50695 36798 ft 404 kts 291°
2026-05-05 02:53 42.29417 -76.57700 36790 ft 404 kts 291°
2026-05-05 02:53 42.31577 -76.64710 36786 ft 403 kts 291°
2026-05-05 02:54 42.33712 -76.71658 36772 ft 402 kts 291°
2026-05-05 02:54 42.35848 -76.78630 36770 ft 401 kts 291°
2026-05-05 02:55 42.37977 -76.85596 36768 ft 400 kts 291°
2026-05-05 02:55 42.40093 -76.92537 36770 ft 398 kts 290°
2026-05-05 02:56 42.42191 -76.99440 36766 ft 396 kts 290°
2026-05-05 02:56 42.44277 -77.06318 36762 ft 394 kts 290°
2026-05-05 02:57 42.46352 -77.13180 36770 ft 393 kts 290°
2026-05-05 02:57 42.48418 -77.20032 36767 ft 392 kts 290°
2026-05-05 02:58 42.50462 -77.26827 36780 ft 392 kts 290°
2026-05-05 02:58 42.52517 -77.33678 36774 ft 392 kts 290°
2026-05-05 02:59 42.54569 -77.40534 36755 ft 393 kts 290°
2026-05-05 02:59 42.56623 -77.47418 36770 ft 394 kts 290°
2026-05-05 03:00 42.58679 -77.54326 36573 ft 398 kts 290°
2026-05-05 03:00 42.59718 -77.57826 36136 ft 399 kts 290°
2026-05-05 03:00 42.60752 -77.61312 35623 ft 396 kts 290°
2026-05-05 03:00 42.61773 -77.64753 35198 ft 391 kts 290°
2026-05-05 03:01 42.62785 -77.68171 34795 ft 388 kts 290°
2026-05-05 03:01 42.63772 -77.71511 34386 ft 385 kts 290°
2026-05-05 03:01 42.64764 -77.74874 33989 ft 382 kts 290°
2026-05-05 03:01 42.65746 -77.78208 33549 ft 379 kts 290°
2026-05-05 03:02 42.66720 -77.81514 33094 ft 375 kts 290°
2026-05-05 03:02 42.67684 -77.84796 32669 ft 372 kts 290°
2026-05-05 03:02 42.68637 -77.88041 32281 ft 368 kts 290°
2026-05-05 03:02 42.69580 -77.91256 31877 ft 365 kts 289°
2026-05-05 03:03 42.70514 -77.94446 31486 ft 362 kts 289°
2026-05-05 03:03 42.71440 -77.97612 31089 ft 359 kts 289°
2026-05-05 03:03 42.72360 -78.00763 30699 ft 356 kts 289°
2026-05-05 03:03 42.73271 -78.03887 30321 ft 354 kts 289°
2026-05-05 03:04 42.74176 -78.06992 29944 ft 352 kts 289°
2026-05-05 03:04 42.75073 -78.10075 29523 ft 350 kts 289°
2026-05-05 03:04 42.75963 -78.13138 29094 ft 347 kts 289°
2026-05-05 03:04 42.76848 -78.16187 28690 ft 343 kts 289°
2026-05-05 03:05 42.77720 -78.19193 28300 ft 340 kts 289°
2026-05-05 03:05 42.78584 -78.22175 27907 ft 337 kts 288°
2026-05-05 03:05 42.79428 -78.25092 27511 ft 335 kts 288°
2026-05-05 03:05 42.80279 -78.28039 27127 ft 332 kts 288°
2026-05-05 03:06 42.81121 -78.30956 26757 ft 330 kts 288°
2026-05-05 03:06 42.81957 -78.33856 26382 ft 328 kts 288°
2026-05-05 03:06 42.82785 -78.36734 26010 ft 326 kts 288°
2026-05-05 03:06 42.83611 -78.39607 25639 ft 324 kts 288°
2026-05-05 03:07 42.84431 -78.42459 25274 ft 323 kts 288°
2026-05-05 03:07 42.85246 -78.45300 24908 ft 321 kts 288°
2026-05-05 03:07 42.86058 -78.48131 24543 ft 320 kts 288°
2026-05-05 03:07 42.86865 -78.50952 24170 ft 319 kts 288°
2026-05-05 03:08 42.87668 -78.53761 23806 ft 317 kts 288°
2026-05-05 03:08 42.88468 -78.56561 23438 ft 316 kts 288°
2026-05-05 03:08 42.89265 -78.59356 23003 ft 316 kts 288°
2026-05-05 03:08 42.90059 -78.62140 22598 ft 314 kts 288°
2026-05-05 03:09 42.90847 -78.64906 22205 ft 312 kts 288°
2026-05-05 03:09 42.91620 -78.67623 21848 ft 310 kts 288°
2026-05-05 03:09 42.92396 -78.70352 21505 ft 307 kts 288°
2026-05-05 03:09 42.93223 -78.73032 21133 ft 307 kts 293°
2026-05-05 03:10 42.94345 -78.75518 20811 ft 309 kts 302°
2026-05-05 03:10 42.95686 -78.77800 20467 ft 308 kts 304°
2026-05-05 03:10 42.97060 -78.80051 20116 ft 307 kts 304°
2026-05-05 03:10 42.98424 -78.82277 19773 ft 305 kts 304°
2026-05-05 03:11 42.99780 -78.84499 19426 ft 304 kts 304°
2026-05-05 03:11 43.01129 -78.86722 19083 ft 303 kts 304°
2026-05-05 03:11 43.02472 -78.88943 18745 ft 302 kts 304°
2026-05-05 03:11 43.03805 -78.91156 18409 ft 301 kts 304°
2026-05-05 03:12 43.04685 -78.92618 18178 ft 301 kts 304°
2026-05-05 03:12 43.06446 -78.95548 17693 ft 300 kts 304°
2026-05-05 03:12 43.07339 -78.97036 17442 ft 299 kts 304°
2026-05-05 03:12 43.08658 -78.99235 17086 ft 298 kts 304°
2026-05-05 03:13 43.10390 -79.02124 16666 ft 296 kts 303°
2026-05-05 03:13 43.11689 -79.04293 16328 ft 294 kts 303°
2026-05-05 03:13 43.12561 -79.05751 16172 ft 293 kts 303°
2026-05-05 03:13 43.14285 -79.08635 15844 ft 300 kts 303°
2026-05-05 03:14 43.15180 -79.10134 15678 ft 301 kts 303°
2026-05-05 03:14 43.16504 -79.12347 15397 ft 299 kts 304°
2026-05-05 03:14 43.17816 -79.14541 15060 ft 296 kts 304°
2026-05-05 03:14 43.19120 -79.16722 14732 ft 294 kts 304°
2026-05-05 03:15 43.20413 -79.18889 14414 ft 293 kts 304°
2026-05-05 03:15 43.21701 -79.21049 14088 ft 291 kts 304°
2026-05-05 03:15 43.22965 -79.23172 13766 ft 290 kts 304°
2026-05-05 03:15 43.24237 -79.25311 13433 ft 289 kts 304°
2026-05-05 03:16 43.25507 -79.27445 13056 ft 287 kts 304°
2026-05-05 03:16 43.26767 -79.29564 12708 ft 286 kts 304°
2026-05-05 03:16 43.28018 -79.31669 12373 ft 284 kts 304°
2026-05-05 03:16 43.29264 -79.33768 12044 ft 282 kts 304°
2026-05-05 03:17 43.30674 -79.35662 11711 ft 288 kts 320°
2026-05-05 03:17 43.32453 -79.36978 11409 ft 292 kts 329°
2026-05-05 03:17 43.34294 -79.38121 11166 ft 288 kts 329°
2026-05-05 03:17 43.36094 -79.39240 11025 ft 280 kts 329°
2026-05-05 03:18 43.37873 -79.40359 10727 ft 282 kts 328°
2026-05-05 03:18 43.39636 -79.41486 10454 ft 285 kts 328°
2026-05-05 03:18 43.41436 -79.42641 10159 ft 284 kts 328°
2026-05-05 03:18 43.43218 -79.43786 9852 ft 282 kts 328°
2026-05-05 03:19 43.46762 -79.46067 9258 ft 280 kts 328°
2026-05-05 03:19 43.48521 -79.47200 8951 ft 278 kts 328°
2026-05-05 03:19 43.50266 -79.48326 8656 ft 276 kts 328°
2026-05-05 03:20 43.52003 -79.49446 8363 ft 275 kts 328°
2026-05-05 03:20 43.53728 -79.50560 8078 ft 273 kts 328°
2026-05-05 03:20 43.55435 -79.51658 7926 ft 267 kts 327°
2026-05-05 03:20 43.57099 -79.52721 7760 ft 261 kts 327°
2026-05-05 03:21 43.58866 -79.53345 7591 ft 271 kts 354°
2026-05-05 03:21 43.60689 -79.52647 7454 ft 279 kts 27°
2026-05-05 03:21 43.62160 -79.50910 7339 ft 276 kts 43°
2026-05-05 03:21 43.63447 -79.49018 7187 ft 272 kts 45°
2026-05-05 03:22 43.64724 -79.47104 7038 ft 269 kts 45°
2026-05-05 03:22 43.65993 -79.45211 6909 ft 269 kts 45°
2026-05-05 03:22 43.67273 -79.43315 6768 ft 269 kts 44°
2026-05-05 03:22 43.68556 -79.41428 6625 ft 270 kts 44°
2026-05-05 03:23 43.69842 -79.39544 6475 ft 270 kts 44°
2026-05-05 03:23 43.71129 -79.37660 6335 ft 269 kts 44°
2026-05-05 03:23 43.72414 -79.35780 6202 ft 269 kts 44°
2026-05-05 03:23 43.73699 -79.33899 6064 ft 269 kts 45°
2026-05-05 03:24 43.74986 -79.32013 5920 ft 269 kts 45°
2026-05-05 03:24 43.76270 -79.30132 5771 ft 270 kts 45°
2026-05-05 03:24 43.77560 -79.28241 5610 ft 270 kts 45°
2026-05-05 03:24 43.78848 -79.26353 5472 ft 269 kts 44°
2026-05-05 03:25 43.80370 -79.24875 4982 ft 269 kts
2026-05-05 03:25 43.82118 -79.24899 4774 ft 243 kts 332°
2026-05-05 03:25 43.83526 -79.25988 4613 ft 224 kts 309°
2026-05-05 03:25 43.84501 -79.27553 4471 ft 207 kts 291°
2026-05-05 03:26 43.85063 -79.29286 4319 ft 194 kts 276°
2026-05-05 03:26 43.85183 -79.31096 4213 ft 186 kts 264°
2026-05-05 03:26 43.85208 -79.32881 4087 ft 185 kts 264°
2026-05-05 03:26 43.85229 -79.34655 3977 ft 184 kts 264°
2026-05-05 03:27 43.85247 -79.36421 3864 ft 183 kts 264°
2026-05-05 03:27 43.85263 -79.38190 3743 ft 183 kts 264°
2026-05-05 03:27 43.85221 -79.39951 3616 ft 181 kts 247°
2026-05-05 03:27 43.84490 -79.41321 3539 ft 178 kts 228°
2026-05-05 03:28 43.83677 -79.42621 3435 ft 176 kts 231°
2026-05-05 03:28 43.82897 -79.43859 3344 ft 165 kts 229°
2026-05-05 03:28 43.82145 -79.44991 3217 ft 155 kts 228°
2026-05-05 03:28 43.81430 -79.46042 3111 ft 145 kts 228°
2026-05-05 03:29 43.80756 -79.47025 3017 ft 135 kts 228°
2026-05-05 03:29 43.80135 -79.47927 2987 ft 126 kts 229°
2026-05-05 03:29 43.79527 -79.48808 2985 ft 126 kts 229°
2026-05-05 03:29 43.78937 -79.49666 2991 ft 124 kts 229°
2026-05-05 03:30 43.78346 -79.50523 3000 ft 121 kts 228°
2026-05-05 03:30 43.77777 -79.51350 2928 ft 117 kts 228°
2026-05-05 03:30 43.77215 -79.52165 2779 ft 117 kts 229°
2026-05-05 03:30 43.76666 -79.52965 2663 ft 111 kts 228°
2026-05-05 03:31 43.76128 -79.53745 2504 ft 112 kts 227°
2026-05-05 03:31 43.75592 -79.54524 2345 ft 111 kts 226°
2026-05-05 03:31 43.75063 -79.55290 2196 ft 109 kts 225°
2026-05-05 03:31 43.74543 -79.56045 2056 ft 107 kts 227°
2026-05-05 03:32 43.74032 -79.56789 1896 ft 105 kts 225°
2026-05-05 03:32 43.73506 -79.57550 1769 ft 112 kts 225°
2026-05-05 03:32 43.72959 -79.58342 1609 ft 117 kts 225°
2026-05-05 03:32 43.72401 -79.59158 1452 ft 116 kts 224°
2026-05-05 03:33 43.71850 -79.60023 1331 ft 123 kts 225°
2026-05-05 03:33 43.71228 -79.60927 1191 ft 136 kts 222°
2026-05-05 03:33 43.70547 -79.61843 978 ft 137 kts 226°
2026-05-05 03:33 43.69897 -79.62803 754 ft 138 kts 224°
2026-05-05 03:34 43.69246 -79.63797 578 ft 140 kts 226°
2026-05-05 03:34 43.68577 -79.64773 884 ft 147 kts 227°
2026-05-05 03:34 43.67841 -79.65858 1701 ft 164 kts 224°
2026-05-05 03:34 43.67069 -79.66925 3047 ft 150 kts 227°
2026-05-05 03:35 43.66429 -79.68254 3665 ft 181 kts 249°
2026-05-05 03:35 43.66319 -79.70084 3869 ft 210 kts 271°
2026-05-05 03:35 43.66576 -79.72178 3872 ft 228 kts 272°
2026-05-05 03:35 43.66801 -79.74345 3647 ft 235 kts 271°
2026-05-05 03:36 43.66991 -79.76609 3315 ft 237 kts 270°
2026-05-05 03:36 43.67152 -79.78838 3228 ft 225 kts 269°
2026-05-05 03:36 43.67300 -79.80911 3251 ft 210 kts 269°
2026-05-05 03:36 43.67462 -79.82896 3067 ft 206 kts 269°
2026-05-05 03:37 43.67686 -79.84824 3049 ft 205 kts 277°
2026-05-05 03:37 43.68335 -79.86624 3106 ft 217 kts 300°
2026-05-05 03:37 43.69598 -79.87934 3178 ft 245 kts 327°
2026-05-05 03:37 43.71387 -79.88245 2933 ft 281 kts
2026-05-05 03:38 43.73142 -79.86961 3052 ft 288 kts 36°
2026-05-05 03:38 43.74599 -79.85020 3127 ft 294 kts 46°
2026-05-05 03:38 43.75983 -79.82915 3061 ft 297 kts 47°
2026-05-05 03:38 43.77323 -79.80802 3063 ft 293 kts 48°
2026-05-05 03:39 43.78650 -79.78684 2926 ft 291 kts 47°
2026-05-05 03:39 43.79979 -79.76576 3032 ft 290 kts 47°
2026-05-05 03:39 43.81321 -79.74483 3183 ft 293 kts 46°
2026-05-05 03:39 43.82708 -79.72372 3164 ft 299 kts 46°
2026-05-05 03:40 43.84134 -79.70263 3074 ft 300 kts 45°
2026-05-05 03:40 43.85566 -79.68202 3082 ft 293 kts 45°
2026-05-05 03:40 43.86972 -79.66200 3166 ft 290 kts 44°
2026-05-05 03:40 43.88375 -79.64179 3269 ft 291 kts 47°
2026-05-05 03:41 43.89578 -79.61949 3379 ft 287 kts 62°
2026-05-05 03:41 43.90252 -79.59377 3164 ft 280 kts 85°
2026-05-05 03:41 43.90255 -79.56767 2997 ft 261 kts 110°
2026-05-05 03:41 43.89671 -79.54567 2979 ft 234 kts 136°
2026-05-05 03:42 43.88600 -79.53055 2959 ft 210 kts 160°
2026-05-05 03:42 43.87330 -79.52176 2939 ft 201 kts 171°
2026-05-05 03:42 43.86013 -79.51444 2820 ft 206 kts 171°
2026-05-05 03:42 43.84680 -79.50787 2873 ft 201 kts 174°
2026-05-05 03:43 43.83333 -79.50171 2809 ft 204 kts 175°
2026-05-05 03:43 43.81983 -79.49619 2846 ft 201 kts 177°
2026-05-05 03:43 43.80652 -79.49120 2861 ft 191 kts 179°
2026-05-05 03:43 43.79471 -79.48967 2958 ft 149 kts 204°
2026-05-05 03:44 43.78693 -79.49649 2825 ft 127 kts 231°
2026-05-05 03:44 43.78160 -79.50579 2858 ft 122 kts 232°
2026-05-05 03:44 43.77606 -79.51480 2893 ft 124 kts 229°
2026-05-05 03:44 43.77024 -79.52354 2798 ft 120 kts 228°
2026-05-05 03:45 43.76481 -79.53197 2633 ft 115 kts 229°
2026-05-05 03:45 43.75966 -79.54003 2488 ft 113 kts 228°
2026-05-05 03:45 43.75417 -79.54805 2391 ft 115 kts 226°
2026-05-05 03:45 43.74872 -79.55604 2321 ft 115 kts 226°
2026-05-05 03:46 43.74327 -79.56386 2134 ft 110 kts 226°
2026-05-05 03:46 43.73800 -79.57134 1898 ft 109 kts 226°
2026-05-05 03:46 43.73285 -79.57915 1790 ft 111 kts 226°
2026-05-05 03:46 43.72742 -79.58738 1576 ft 119 kts 224°
2026-05-05 03:47 43.72179 -79.59566 1408 ft 119 kts 224°
2026-05-05 03:47 43.71572 -79.60425 1210 ft 131 kts 223°
2026-05-05 03:47 43.70916 -79.61345 1048 ft 139 kts 224°
2026-05-05 03:47 43.70226 -79.62327 829 ft 145 kts 223°
2026-05-05 03:48 43.69523 -79.63335 643 ft 148 kts 224°
2026-05-05 03:48 43.68837 -79.64349 563 ft 133 kts 223°
2026-05-05 03:48 43.68320 -79.65091 569 ft 77 kts 226°
2026-05-05 03:48 43.68104 -79.65389 564 ft 25 kts 212°
2026-05-05 03:49 43.67961 -79.65466 566 ft 14 kts 196°
2026-05-05 03:49 43.67880 -79.65486 563 ft 11 kts 170°
2026-05-05 03:49 43.67838 -79.65412 568 ft 11 kts 87°
2026-05-05 03:49 43.67888 -79.65316 562 ft 15 kts 46°
2026-05-05 03:50 43.67977 -79.65188 563 ft 19 kts 47°
2026-05-05 03:50 43.68075 -79.65045 569 ft 21 kts 48°
2026-05-05 03:50 43.68157 -79.64924 569 ft 17 kts 47°
2026-05-05 03:50 43.68221 -79.64830 572 ft 10 kts 46°
2026-05-05 03:51 43.68270 -79.64760 569 ft 10 kts 45°
2026-05-05 03:51 43.68334 -79.64669 571 ft 18 kts 46°
2026-05-05 03:51 43.68439 -79.64515 567 ft 24 kts 46°
2026-05-05 03:51 43.68561 -79.64340 564 ft 26 kts 47°
2026-05-05 03:52 43.68645 -79.64216 570 ft 16 kts 46°
2026-05-05 03:52 43.68673 -79.64081 565 ft 16 kts 90°
2026-05-05 03:52 43.68671 -79.63915 567 ft 17 kts 91°
2026-05-05 03:52 43.68626 -79.63782 571 ft 16 kts 135°
2026-05-05 03:53 43.68535 -79.63664 565 ft 20 kts 136°
2026-05-05 03:53 43.68433 -79.63532 565 ft 20 kts 136°
2026-05-05 03:53 43.68333 -79.63396 565 ft 21 kts 137°
2026-05-05 03:53 43.68227 -79.63263 568 ft 20 kts 137°
2026-05-05 03:54 43.68126 -79.63130 567 ft 20 kts 136°
2026-05-05 03:54 43.68031 -79.63006 567 ft 17 kts 136°
2026-05-05 03:54 43.67962 -79.62888 574 ft 15 kts 96°
2026-05-05 03:54 43.68013 -79.62785 572 ft 13 kts 47°
2026-05-05 03:55 43.68084 -79.62683 570 ft 16 kts 47°
2026-05-05 03:55 43.68167 -79.62562 568 ft 18 kts 46°
2026-05-05 03:55 43.68244 -79.62448 565 ft 14 kts 48°
2026-05-05 03:55 43.68315 -79.62377 565 ft 11 kts 19°
2026-05-05 03:56 43.68373 -79.62359 563 ft 6 kts 354°
2026-05-05 03:56 43.68404 -79.62367 566 ft 4 kts 349°
2026-05-05 03:56 43.68430 -79.62374 565 ft 2 kts 348°
2026-05-05 03:56 43.68438 -79.62377 565 ft 1 kts 348°
2026-05-05 03:57 43.68443 -79.62378 566 ft 0 kts 348°